[[{"header":{"parameterUnit":"m.s-1","parameterCategory":2,"la1":30.2991,"la2":30.254,"lo1":-89.0895,"lo2":-89.0444,"dy":0.0017,"dx":0.0017,"nx":28,"ny":28,"refTime":"2023-10-05T09:00:00:Z","depth":"0","parameterNumber":2,"parameterNumberName":"U-component_of_CURRENTS"},"data":[0,0,0,0,0,0,0,0,0,0,0,0,0,0,0,0,0,0,0,0,0,0,0,0,0,0,0,0,0,0,0,0,0,0,0,0,0,0,0,0,0,0,0,0,0,0,0,0,0,0,0,0,0,0,0,0,0,0,0.257,0.2571,0,0.2606,0.2606,0.2607,0.2598,0.2598,0.2598,0.2598,0.2572,0.2572,0.2571,0,0,0,0,0,0,0,0,0,0,0,0,0,0.2491,0.2492,0.257,0.2571,0.2572,0.2606,0.2606,0.2607,0.2599,0.2598,0.2598,0.2597,0.2572,0.2572,0.2571,0,0,0,0,0,0,0,0,0,0,0,0,0,0.2522,0.2493,0.257,0.2575,0.2576,0.2606,0.2607,0.2607,0.2599,0.2598,0.2598,0.2597,0.2572,0.2572,0.2571,0.2577,0,0,0.257,0.2569,0,0,0,0,0,0,0,0,0.2521,0.2525,0.2573,0.2575,0.2576,0.2601,0.257,0.2595,0.2599,0.2586,0.2598,0.2597,0.2579,0.2578,0.2581,0.2576,0.2575,0.257,0.2569,0.2569,0.2569,0,0,0,0,0,0,0,0.2518,0.2523,0.258,0.2574,0.2576,0.2575,0.2578,0.2574,0.258,0.2587,0.2587,0.2598,0.2579,0.2582,0.258,0.2575,0.257,0.2569,0.2569,0.2568,0.259,0.2591,0,0,0,0,0,0,0.2523,0.2521,0.2579,0.2582,0.2551,0.2577,0.258,0.259,0.2582,0.2582,0.2598,0.2598,0.2583,0.2581,0.2579,0.2608,0.2569,0.2568,0.2568,0.2589,0.259,0.2591,0,0,0,0,0,0,0.2521,0.2528,0.2578,0.2555,0.2562,0.2579,0.259,0.2591,0.2599,0.2592,0.259,0.2605,0.2582,0.258,0.2586,0.2606,0.2568,0.2568,0.2588,0.2589,0.2591,0.2652,0,0,0,0,0,0,0.2519,0.2527,0.2533,0.2556,0.2564,0.2602,0.2591,0.2592,0.2608,0.2607,0.2597,0.2594,0.2582,0.2587,0.2585,0.2605,0.2567,0.2587,0.2588,0.259,0.2649,0.2655,0.2661,0,0,0,0,0,0.2516,0.2529,0.2533,0.254,0.2572,0.2604,0.2607,0.2614,0.2609,0.2617,0.2613,0.2595,0.2596,0.2587,0.2585,0.2605,0.2586,0.2588,0.259,0.2646,0.2654,0.266,0,0,0,0,0,0,0.2493,0.2531,0.2535,0.2557,0.2582,0.2604,0.2615,0.262,0.2624,0.262,0.2607,0.2604,0.2617,0.2603,0.2593,0.2616,0.2588,0.259,0.2631,0.2639,0.2644,0.2647,0.2567,0,0,0,0,0,0.2494,0.2518,0.2547,0.2567,0.2579,0.2597,0.261,0.2617,0.2628,0.2629,0.2625,0.262,0.2624,0.2624,0.2621,0.2634,0.264,0.2645,0.2651,0.2656,0.2657,0.2682,0.2691,0.2598,0.2598,0.2598,0,0,0.2487,0.2517,0.2526,0.2565,0.2582,0.2606,0.2602,0.2628,0.2647,0.2625,0.2643,0.264,0.2632,0.2649,0.2653,0.2639,0.2691,0.2659,0.2663,0.2661,0.2685,0.2694,0.2703,0.2599,0.2599,0.2599,0,0,0.2496,0.2516,0.2537,0.2561,0.2598,0.2616,0.2626,0.2651,0.266,0.2679,0.2672,0.2684,0.2682,0.269,0.2691,0.2728,0.2722,0.2725,0.2758,0.2784,0.2792,0.2799,0.2844,0.2855,0.2729,0.2729,0.2729,0,0.2487,0.2521,0.2547,0.2575,0.26,0.2622,0.2648,0.2664,0.2689,0.2705,0.2689,0.2712,0.2704,0.2737,0.2749,0.2742,0.276,0.2733,0.2793,0.2799,0.2805,0.285,0.2861,0.2732,0.2731,0.2731,0.2731,0,0.251,0.2537,0.2554,0.26,0.2629,0.2657,0.2689,0.2716,0.2728,0.2744,0.2776,0.2771,0.2788,0.2789,0.2777,0.2822,0.2824,0.2799,0.2776,0.2819,0.2863,0.2874,0.2736,0.2735,0.2734,0.2734,0,0,0.2486,0.2555,0.256,0.2589,0.2645,0.2673,0.2717,0.2767,0.2803,0.2813,0.2853,0.2861,0.2863,0.2865,0.286,0.2876,0.2941,0.2857,0.2857,0.2906,0.3019,0.3105,0.3124,0.2927,0.2928,0.2929,0.3043,0,0.2494,0.2548,0.2586,0.2639,0.2669,0.2716,0.2758,0.2805,0.2841,0.2883,0.289,0.292,0.2892,0.2908,0.2922,0.2934,0.2966,0.2914,0.2966,0.2968,0.3042,0.3138,0.3062,0.3165,0.3053,0.3055,0.3056,0,0.2498,0.2541,0.259,0.2671,0.2689,0.2724,0.2812,0.2856,0.2922,0.2947,0.2983,0.299,0.303,0.2987,0.3043,0.3013,0.3025,0.3027,0.3031,0.3093,0.3073,0.3098,0.3187,0.3092,0.3071,0.307,0.3069,0,0.2473,0.2545,0.259,0.2614,0.2702,0.2739,0.2791,0.287,0.2915,0.2994,0.303,0.3072,0.3103,0.3114,0.3139,0.3094,0.3201,0.3138,0.3232,0.3238,0.3176,0.3175,0.3179,0.3182,0.3182,0.3182,0.3181,0,0.247,0.2505,0.258,0.2604,0.2658,0.273,0.2796,0.2861,0.2946,0.3018,0.3058,0.3124,0.3134,0.3196,0.3188,0.3276,0.3253,0.3271,0.3284,0.32,0.32,0.3114,0.3061,0.3186,0.3185,0.3184,0.3184,0,0.2431,0.2483,0.2534,0.2621,0.2646,0.2686,0.2784,0.2838,0.2931,0.303,0.306,0.3175,0.329,0.3319,0.3373,0.3369,0.3344,0.3448,0.3371,0.3375,0.337,0.3323,0.3247,0.3147,0.3569,0.3572,0.3574,0,0.2417,0.2439,0.2521,0.2548,0.2585,0.2649,0.2696,0.2807,0.2881,0.3073,0.3126,0.3278,0.3381,0.3523,0.3588,0.3653,0.3464,0.3588,0.3487,0.3402,0.3357,0.3188,0.3093,0.3426,0.3428,0.3428,0.3429,0,0.2381,0.2409,0.2446,0.2498,0.2548,0.2603,0.2694,0.2736,0.2901,0.3005,0.3171,0.327,0.35,0.3568,0.3702,0.3715,0.3439,0.3613,0.3515,0.3266,0.3085,0.2983,0.3333,0.3437,0.3436,0.3436,0.3435,0.3435,0.2337,0.2348,0.2396,0.2438,0.2494,0.2548,0.2561,0.2681,0.2785,0.2928,0.312,0.3239,0.3431,0.3644,0.3651,0.3646,0.3578,0.3516,0.3476,0.332,0.3189,0.3601,0.3729,0.373,0.3731,0.3731,0.3732,0,0.2268,0.2294,0.2336,0.2378,0.2401,0.2467,0.255,0.2553,0.2635,0.2822,0.2958,0.3165,0.3286,0.3401,0.3564,0.3494,0.3277,0.3379,0.3067,0.2984,0.3352,0.3314,0.3369,0.3369,0.3369,0.3369,0.3369,0.3369,0.2234,0.2237,0.2263,0.2268,0.2301,0.2294,0.2314,0.2348,0.2444,0.256,0.2684,0.284,0.313,0.3362,0.337,0.3289,0.2995,0.2932,0.286,0.3082,0.3088,0.3093,0.3042,0.3039,0.3038,0.2353,0.2348,0.2344]},{"header":{"parameterUnit":"m.s-1","parameterCategory":2,"la1":30.2991,"la2":30.254,"lo1":-89.0895,"lo2":-89.0444,"dy":0.0017,"dx":0.0017,"nx":28,"ny":28,"refTime":"2023-10-05T09:00:00:Z","depth":"0","parameterNumber":3,"parameterNumberName":"V-component_of_CURRENTS"},"data":[0,0,0,0,0,0,0,0,0,0,0,0,0,0,0,0,0,0,0,0,0,0,0,0,0,0,0,0,0,0,0,0,0,0,0,0,0,0,0,0,0,0,0,0,0,0,0,0,0,0,0,0,0,0,0,0,0,0,-0.0722,-0.0724,0,-0.0824,-0.0824,-0.0824,-0.0819,-0.0819,-0.0818,-0.0818,-0.0879,-0.0881,-0.0883,0,0,0,0,0,0,0,0,0,0,0,0,0,-0.0596,-0.0597,-0.0722,-0.0724,-0.0726,-0.0824,-0.0824,-0.0824,-0.0819,-0.0819,-0.0818,-0.0818,-0.0878,-0.0881,-0.0883,0,0,0,0,0,0,0,0,0,0,0,0,0,-0.066,-0.0598,-0.0721,-0.0743,-0.0747,-0.0824,-0.0824,-0.0824,-0.0819,-0.0819,-0.0818,-0.0817,-0.0877,-0.0881,-0.0884,-0.0918,0,0,-0.0893,-0.0895,0,0,0,0,0,0,0,0,-0.0656,-0.0663,-0.0738,-0.0742,-0.0746,-0.0817,-0.0803,-0.0857,-0.082,-0.0781,-0.0818,-0.0817,-0.0862,-0.0866,-0.0873,-0.0921,-0.0923,-0.0893,-0.0895,-0.0897,-0.0898,0,0,0,0,0,0,0,-0.0651,-0.0659,-0.0751,-0.074,-0.0746,-0.0774,-0.078,-0.0813,-0.0815,-0.0784,-0.0787,-0.0815,-0.0862,-0.087,-0.0874,-0.0924,-0.0893,-0.0896,-0.0898,-0.0899,-0.1028,-0.1029,0,0,0,0,0,0,-0.0657,-0.0654,-0.0748,-0.0756,-0.071,-0.0777,-0.0784,-0.0787,-0.0816,-0.0823,-0.0815,-0.0815,-0.0865,-0.0871,-0.0876,-0.0911,-0.0897,-0.09,-0.0901,-0.1027,-0.1028,-0.103,0,0,0,0,0,0,-0.0653,-0.0663,-0.0744,-0.0717,-0.0731,-0.0781,-0.0784,-0.0789,-0.0798,-0.0842,-0.0846,-0.082,-0.0864,-0.0872,-0.0904,-0.0914,-0.0901,-0.0904,-0.1025,-0.1027,-0.1029,-0.0986,0,0,0,0,0,0,-0.0649,-0.066,-0.0659,-0.0717,-0.0733,-0.0773,-0.0786,-0.0792,-0.0822,-0.0821,-0.0848,-0.0853,-0.0864,-0.09,-0.0908,-0.0918,-0.0906,-0.1023,-0.1026,-0.1028,-0.0986,-0.0987,-0.0988,0,0,0,0,0,-0.0643,-0.0647,-0.0658,-0.067,-0.073,-0.0774,-0.0782,-0.081,-0.0823,-0.0816,-0.0846,-0.0852,-0.0924,-0.0903,-0.0912,-0.0924,-0.1021,-0.1025,-0.1028,-0.0985,-0.0987,-0.0988,0,0,0,0,0,0,-0.0595,-0.065,-0.0662,-0.0682,-0.0719,-0.0777,-0.0784,-0.0814,-0.0833,-0.0827,-0.0865,-0.0872,-0.0907,-0.093,-0.0907,-0.0975,-0.0977,-0.0983,-0.0942,-0.0943,-0.0944,-0.0911,-0.0909,0,0,0,0,0,-0.0586,-0.0595,-0.0655,-0.0668,-0.0683,-0.0734,-0.0758,-0.0775,-0.0811,-0.0818,-0.0848,-0.0887,-0.0931,-0.0946,-0.098,-0.1012,-0.1027,-0.1032,-0.1033,-0.1033,-0.1016,-0.1062,-0.1064,-0.1041,-0.1041,-0.1041,0,0,-0.0574,-0.0607,-0.0612,-0.0658,-0.0684,-0.0699,-0.0741,-0.0765,-0.0781,-0.0824,-0.0843,-0.0888,-0.0943,-0.0976,-0.0995,-0.0992,-0.1049,-0.1038,-0.1037,-0.1019,-0.1066,-0.1068,-0.1069,-0.1044,-0.1043,-0.1043,0,0,-0.0543,-0.0575,-0.0562,-0.059,-0.0634,-0.0672,-0.0681,-0.0733,-0.0751,-0.0787,-0.0831,-0.0878,-0.0937,-0.0975,-0.1007,-0.104,-0.1055,-0.1063,-0.1033,-0.1079,-0.108,-0.1081,-0.1093,-0.1096,-0.106,-0.106,-0.1059,0,-0.0519,-0.0519,-0.0567,-0.0564,-0.0591,-0.0658,-0.0654,-0.069,-0.0748,-0.0771,-0.0781,-0.0892,-0.0935,-0.0996,-0.1006,-0.1038,-0.1055,-0.1017,-0.1076,-0.1077,-0.1079,-0.1092,-0.1095,-0.1058,-0.1058,-0.1058,-0.1058,0,-0.0479,-0.048,-0.0479,-0.0495,-0.0527,-0.0537,-0.0603,-0.063,-0.0676,-0.0721,-0.0786,-0.0851,-0.0914,-0.0951,-0.0985,-0.1036,-0.104,-0.107,-0.106,-0.1078,-0.1091,-0.1096,-0.1056,-0.1056,-0.1057,-0.1057,0,0,-0.041,-0.044,-0.0436,-0.0434,-0.0491,-0.0512,-0.0547,-0.0603,-0.0626,-0.0691,-0.0725,-0.0822,-0.0863,-0.0902,-0.0965,-0.1006,-0.1039,-0.1036,-0.1039,-0.1024,-0.1114,-0.107,-0.107,-0.1079,-0.108,-0.108,-0.1113,0,-0.0355,-0.0334,-0.0373,-0.0365,-0.0363,-0.0439,-0.0471,-0.0532,-0.0591,-0.0638,-0.0731,-0.0782,-0.0846,-0.0873,-0.093,-0.1015,-0.105,-0.1025,-0.1119,-0.112,-0.106,-0.1074,-0.0963,-0.0979,-0.1117,-0.1117,-0.1118,0,-0.0294,-0.0293,-0.0267,-0.0304,-0.031,-0.0322,-0.0388,-0.0421,-0.0515,-0.0558,-0.0631,-0.0704,-0.0788,-0.0833,-0.0968,-0.0948,-0.102,-0.1081,-0.1085,-0.1057,-0.1085,-0.0989,-0.0982,-0.1147,-0.1125,-0.1124,-0.1124,0,-0.0221,-0.0222,-0.0202,-0.0212,-0.0261,-0.027,-0.0306,-0.039,-0.0408,-0.0498,-0.0509,-0.0639,-0.0676,-0.0802,-0.0932,-0.0953,-0.1058,-0.1109,-0.1134,-0.1131,-0.1059,-0.1048,-0.1198,-0.119,-0.119,-0.119,-0.119,0,-0.0158,-0.0141,-0.0161,-0.015,-0.0132,-0.0197,-0.0198,-0.0253,-0.031,-0.0302,-0.045,-0.0456,-0.0668,-0.0759,-0.0898,-0.101,-0.1036,-0.1115,-0.1138,-0.1041,-0.1029,-0.1188,-0.1287,-0.1191,-0.1191,-0.1191,-0.1191,0,-0.0086,-0.0097,-0.007,-0.0093,-0.0092,-0.008,-0.0106,-0.0107,-0.0173,-0.016,-0.0176,-0.0311,-0.0425,-0.0624,-0.0813,-0.0934,-0.1136,-0.1103,-0.0956,-0.0961,-0.1143,-0.1241,-0.1392,-0.1474,-0.114,-0.1139,-0.1139,0,-0.0056,-0.0027,-0.0008,0.0019,0.0016,0.0024,0.0035,-0.0025,-0.0009,-0.0049,-0.0019,-0.0132,-0.0168,-0.0436,-0.0675,-0.0895,-0.1085,-0.0954,-0.0986,-0.1126,-0.1255,-0.1342,-0.1408,-0.0874,-0.0871,-0.0869,-0.0867,0,0.0004,0.002,0.0044,0.0112,0.0145,0.0175,0.0196,0.0236,0.0196,0.0239,0.0281,0.0255,0.0004,-0.0157,-0.0481,-0.0659,-0.1038,-0.0912,-0.1108,-0.1091,-0.1146,-0.1242,-0.0873,-0.0847,-0.0849,-0.085,-0.0851,-0.0852,0.005,0.009,0.0137,0.0202,0.0253,0.0328,0.0383,0.0439,0.0527,0.0632,0.0572,0.0637,0.0326,-0.0093,-0.0381,-0.0825,-0.0905,-0.0946,-0.106,-0.1142,-0.1205,-0.0772,-0.0747,-0.0749,-0.075,-0.0751,-0.0752,0,0.0106,0.0155,0.0219,0.0307,0.0395,0.0396,0.0496,0.0584,0.0755,0.0893,0.0983,0.0948,0.0571,0.0097,-0.0497,-0.0871,-0.1065,-0.1115,-0.123,-0.1301,-0.0939,-0.0912,-0.0861,-0.0861,-0.0861,-0.086,-0.086,-0.086,0.0137,0.0219,0.026,0.0419,0.0491,0.0622,0.0701,0.0859,0.0994,0.1249,0.1382,0.1413,0.1087,-0.0062,-0.0904,-0.1135,-0.1449,-0.147,-0.171,-0.1472,-0.1466,-0.1461,-0.1461,-0.1526,-0.1527,-0.1988,-0.1992,-0.1996]}],[{"header":{"parameterUnit":"m.s-1","parameterCategory":2,"la1":30.2991,"la2":30.254,"lo1":-89.0895,"lo2":-89.0444,"dy":0.0017,"dx":0.0017,"nx":28,"ny":28,"refTime":"2023-10-05T09:00:00:Z","depth":"2","parameterNumber":2,"parameterNumberName":"U-component_of_CURRENTS"},"data":[0,0,0,0,0,0,0,0,0,0,0,0,0,0,0,0,0,0,0,0,0,0,0,0,0,0,0,0,0,0,0,0,0,0,0,0,0,0,0,0,0,0,0,0,0,0,0,0,0,0,0,0,0,0,0,0,0,0,0.2181,0.2181,0,0.2234,0.2234,0.2235,0.2259,0.2259,0.2259,0.2259,0.2256,0.2256,0.2256,0,0,0,0,0,0,0,0,0,0,0,0,0,0.2134,0.2134,0.2181,0.2181,0.2182,0.2234,0.2234,0.2235,0.2259,0.2259,0.2259,0.2259,0.2256,0.2256,0.2256,0,0,0,0,0,0,0,0,0,0,0,0,0,0.2168,0.2135,0.2181,0.22,0.2202,0.2233,0.2234,0.2235,0.2259,0.2259,0.2259,0.2259,0.2256,0.2256,0.2256,0.2259,0,0,0.2256,0.2256,0,0,0,0,0,0,0,0,0.2166,0.2169,0.2197,0.2199,0.2201,0.2239,0.2217,0.224,0.2259,0.2238,0.2259,0.2259,0.2245,0.2246,0.2258,0.2259,0.2259,0.2256,0.2256,0.2256,0.2256,0,0,0,0,0,0,0,0.2163,0.2167,0.2202,0.2197,0.22,0.2217,0.2222,0.2222,0.2241,0.224,0.2242,0.2247,0.2246,0.2258,0.2258,0.2259,0.2256,0.2256,0.2256,0.2256,0.2333,0.2335,0,0,0,0,0,0,0.2154,0.2165,0.2201,0.2204,0.2182,0.2218,0.2223,0.2228,0.2242,0.2245,0.2247,0.2248,0.2258,0.2258,0.2258,0.2317,0.2256,0.2256,0.2256,0.2331,0.2333,0.2335,0,0,0,0,0,0,0.2153,0.2157,0.2198,0.2185,0.2192,0.2219,0.2224,0.2229,0.2255,0.2248,0.225,0.2269,0.2258,0.2258,0.228,0.2315,0.2256,0.2256,0.2328,0.2331,0.2334,0.2401,0,0,0,0,0,0,0.2151,0.2156,0.2175,0.2185,0.2192,0.2227,0.2224,0.223,0.2257,0.2259,0.2267,0.2266,0.2258,0.228,0.228,0.2314,0.2256,0.2326,0.233,0.2333,0.2396,0.2405,0.2414,0,0,0,0,0,0.215,0.2176,0.2175,0.218,0.221,0.2228,0.2234,0.2253,0.2258,0.2275,0.2287,0.2267,0.2305,0.2282,0.2281,0.2316,0.2324,0.2329,0.2333,0.2392,0.2404,0.2414,0,0,0,0,0,0,0.2158,0.2181,0.218,0.221,0.222,0.2232,0.2258,0.2263,0.2288,0.2297,0.2286,0.2286,0.2317,0.2311,0.2286,0.2352,0.2314,0.2319,0.2359,0.237,0.2379,0.2384,0.2256,0,0,0,0,0,0.2168,0.2192,0.2205,0.2222,0.2236,0.2248,0.2264,0.2274,0.2288,0.23,0.2302,0.2317,0.2335,0.2347,0.2353,0.2387,0.2395,0.2413,0.2422,0.2429,0.2436,0.2489,0.2503,0.235,0.235,0.235,0,0,0.2167,0.2187,0.2196,0.2226,0.2239,0.2259,0.2258,0.2287,0.2312,0.2295,0.2334,0.234,0.2349,0.2388,0.2403,0.2389,0.2479,0.2435,0.2441,0.2444,0.2495,0.251,0.2523,0.2353,0.2353,0.2352,0,0,0.2171,0.2203,0.2222,0.2244,0.2273,0.2285,0.2295,0.2317,0.2344,0.2374,0.2377,0.241,0.2424,0.2451,0.2463,0.2528,0.2517,0.2531,0.2588,0.264,0.2653,0.2664,0.2698,0.2711,0.2544,0.2545,0.2545,0,0.2172,0.2199,0.2228,0.2255,0.2282,0.2295,0.2321,0.2349,0.2375,0.2419,0.2394,0.246,0.2458,0.2531,0.2552,0.2548,0.2568,0.2544,0.2652,0.2663,0.2673,0.2705,0.2719,0.2548,0.2548,0.2548,0.2547,0,0.2182,0.2218,0.2235,0.2273,0.2305,0.2334,0.2372,0.2417,0.2443,0.2473,0.2546,0.2548,0.2598,0.2602,0.2592,0.2678,0.2666,0.2649,0.2621,0.2693,0.2721,0.2735,0.2554,0.2552,0.2551,0.255,0,0,0.215,0.2227,0.2235,0.2269,0.2328,0.2353,0.2421,0.2495,0.2562,0.2587,0.2667,0.2698,0.2716,0.2731,0.2732,0.2768,0.2851,0.2744,0.2745,0.2772,0.2962,0.2904,0.2912,0.2856,0.2859,0.2861,0.2953,0,0.2149,0.2206,0.225,0.2307,0.2345,0.2411,0.2467,0.2545,0.2613,0.2694,0.2738,0.2796,0.2763,0.2792,0.283,0.2842,0.289,0.2827,0.2893,0.2895,0.283,0.2928,0.2705,0.2764,0.2966,0.2969,0.297,0,0.2146,0.2193,0.225,0.2351,0.2375,0.2408,0.2543,0.2603,0.2734,0.2789,0.2876,0.2909,0.2983,0.2927,0.3008,0.2972,0.2982,0.2978,0.2982,0.2913,0.2863,0.2726,0.2781,0.2993,0.2991,0.2989,0.2988,0,0.2114,0.2202,0.2253,0.2284,0.2386,0.2442,0.2503,0.2635,0.2715,0.2862,0.293,0.3021,0.3064,0.3098,0.3111,0.3073,0.3182,0.3131,0.3092,0.3087,0.2902,0.2876,0.3202,0.3202,0.3202,0.3201,0.3201,0,0.2104,0.2148,0.2242,0.227,0.2343,0.2429,0.2532,0.2621,0.2756,0.2841,0.2972,0.3032,0.3109,0.3182,0.3171,0.3185,0.3246,0.3125,0.312,0.2919,0.2895,0.3087,0.3073,0.3205,0.3204,0.3203,0.3203,0,0.2054,0.2115,0.2181,0.2289,0.2326,0.2379,0.2517,0.2592,0.2738,0.2853,0.2902,0.3069,0.3155,0.3236,0.3294,0.3259,0.3274,0.3266,0.302,0.2985,0.3125,0.3113,0.3228,0.3227,0.3226,0.3225,0.3224,0,0.2033,0.206,0.217,0.22,0.2245,0.2339,0.2395,0.2551,0.2634,0.2841,0.2879,0.3045,0.3095,0.3207,0.3209,0.3235,0.3283,0.3041,0.2922,0.315,0.3135,0.3124,0.3114,0.2704,0.2699,0.2695,0.2692,0,0.1989,0.2026,0.2071,0.2134,0.2189,0.2262,0.2359,0.2422,0.2597,0.2675,0.2771,0.2832,0.2982,0.2918,0.3017,0.2988,0.3018,0.2961,0.3293,0.2731,0.2664,0.2646,0.2652,0.2657,0.2661,0.2663,0.2665,0.2667,0.1943,0.1957,0.2012,0.2059,0.2118,0.2167,0.2182,0.2276,0.2348,0.2445,0.2569,0.2584,0.2675,0.2686,0.2642,0.2656,0.2834,0.2719,0.2728,0.2742,0.2663,0.2599,0.2565,0.2568,0.257,0.2572,0.2574,0,0.1871,0.1896,0.1935,0.1976,0.1979,0.2059,0.2134,0.2117,0.2114,0.2227,0.226,0.2138,0.2145,0.2258,0.2218,0.2247,0.2194,0.2172,0.2078,0.2117,0.215,0.2037,0.1775,0.1772,0.1769,0.1766,0,0,0.1834,0.1827,0.1844,0.182,0.1851,0.1821,0.1835,0.1817,0.1867,0.1833,0.1836,0.2016,0.2159,0.1904,0.1918,0.1833,0.1942,0.177,0.2421,0.2348,0.2376,0.2492,0.2367,0,0,0,0,0]},{"header":{"parameterUnit":"m.s-1","parameterCategory":2,"la1":30.2991,"la2":30.254,"lo1":-89.0895,"lo2":-89.0444,"dy":0.0017,"dx":0.0017,"nx":28,"ny":28,"refTime":"2023-10-05T09:00:00:Z","depth":"2","parameterNumber":3,"parameterNumberName":"V-component_of_CURRENTS"},"data":[0,0,0,0,0,0,0,0,0,0,0,0,0,0,0,0,0,0,0,0,0,0,0,0,0,0,0,0,0,0,0,0,0,0,0,0,0,0,0,0,0,0,0,0,0,0,0,0,0,0,0,0,0,0,0,0,0,0,0.0149,0.0149,0,0.0063,0.0061,0.006,-0.0021,-0.0022,-0.0022,-0.0023,-0.0101,-0.0102,-0.0104,0,0,0,0,0,0,0,0,0,0,0,0,0,0.0156,0.0156,0.0149,0.0149,0.0148,0.0063,0.0061,0.0059,-0.0021,-0.0022,-0.0022,-0.0023,-0.01,-0.0102,-0.0104,0,0,0,0,0,0,0,0,0,0,0,0,0,0.0115,0.0156,0.015,0.0101,0.0096,0.0063,0.0061,0.0059,-0.0021,-0.0022,-0.0022,-0.0023,-0.01,-0.0102,-0.0104,-0.0102,0,0,-0.0112,-0.0113,0,0,0,0,0,0,0,0,0.0118,0.0114,0.0109,0.0105,0.0099,0.0035,0.0035,0.0007,-0.002,0.0019,-0.0023,-0.0024,-0.0051,-0.0057,-0.0079,-0.0106,-0.0109,-0.0112,-0.0113,-0.0114,-0.0115,0,0,0,0,0,0,0,0.0121,0.0117,0.011,0.0109,0.0103,0.0053,0.0047,0.0028,-0.0014,0.0015,0.001,0.0009,-0.0054,-0.0076,-0.0081,-0.011,-0.0112,-0.0114,-0.0115,-0.0116,-0.0228,-0.0229,0,0,0,0,0,0,0.0147,0.0121,0.0113,0.0108,0.0112,0.0055,0.0047,0.0053,-0.0014,-0.0024,0.0009,0.0005,-0.0072,-0.0078,-0.0084,-0.013,-0.0114,-0.0116,-0.0118,-0.0226,-0.0228,-0.023,0,0,0,0,0,0,0.0147,0.0147,0.0117,0.0115,0.0109,0.0057,0.0062,0.0051,0.0023,-0.0018,-0.0028,-0.0007,-0.0073,-0.0081,-0.0102,-0.0131,-0.0117,-0.012,-0.0225,-0.0227,-0.0229,-0.0192,0,0,0,0,0,0,0.0148,0.0148,0.0146,0.0118,0.011,0.0097,0.0063,0.005,0.0026,0.002,-0.0035,-0.0043,-0.0074,-0.0098,-0.0104,-0.0134,-0.0121,-0.0223,-0.0226,-0.0228,-0.0191,-0.0192,-0.0194,0,0,0,0,0,0.0149,0.0153,0.0146,0.0145,0.0114,0.0097,0.0088,0.0044,0.0027,0.0015,-0.0018,-0.0042,-0.0123,-0.0099,-0.0107,-0.0139,-0.0221,-0.0225,-0.0228,-0.019,-0.0192,-0.0194,0,0,0,0,0,0,0.0156,0.0145,0.0137,0.0138,0.0121,0.0085,0.0072,0.0049,0.0012,0.0001,-0.0037,-0.0047,-0.0079,-0.0114,-0.0087,-0.0185,-0.0186,-0.0191,-0.0155,-0.0157,-0.0159,-0.0122,-0.0123,0,0,0,0,0,0.0161,0.016,0.0145,0.0147,0.0144,0.011,0.0094,0.0065,0.0038,0.0019,-0.0016,-0.0064,-0.01,-0.0128,-0.016,-0.0199,-0.0211,-0.0236,-0.0237,-0.0238,-0.0217,-0.0257,-0.0259,-0.0242,-0.0241,-0.0241,0,0,0.0168,0.016,0.016,0.0148,0.0132,0.0132,0.0096,0.0076,0.0065,0.0019,-0.001,-0.0053,-0.0106,-0.0153,-0.0175,-0.0186,-0.0253,-0.0242,-0.0242,-0.022,-0.0261,-0.0262,-0.0263,-0.0244,-0.0243,-0.0243,0,0,0.0187,0.0176,0.0183,0.0172,0.0151,0.0136,0.0137,0.01,0.007,0.0051,0.0001,-0.005,-0.0099,-0.0158,-0.0188,-0.0215,-0.0244,-0.025,-0.024,-0.028,-0.0281,-0.0282,-0.0301,-0.0304,-0.0269,-0.0268,-0.0268,0,0.0189,0.0204,0.0182,0.0185,0.0183,0.0149,0.0159,0.0128,0.0083,0.0057,0.0049,-0.0047,-0.0098,-0.0162,-0.0187,-0.0216,-0.0234,-0.0223,-0.0278,-0.0279,-0.028,-0.03,-0.0303,-0.0267,-0.0267,-0.0267,-0.0267,0,0.0221,0.0222,0.0228,0.0229,0.0221,0.0221,0.0195,0.0169,0.0142,0.0101,0.0045,-0.0019,-0.0086,-0.0128,-0.0161,-0.0224,-0.0231,-0.0256,-0.0261,-0.0279,-0.03,-0.0304,-0.0265,-0.0266,-0.0266,-0.0266,0,0,0.0253,0.0251,0.0252,0.0262,0.0243,0.0247,0.0231,0.0203,0.0199,0.0127,0.0101,0.0011,-0.0046,-0.0084,-0.0156,-0.0201,-0.024,-0.0236,-0.0239,-0.0232,-0.0313,-0.029,-0.0292,-0.0274,-0.0275,-0.0275,-0.0323,0,0.0285,0.0309,0.0296,0.0323,0.0338,0.0302,0.0318,0.0277,0.023,0.0189,0.0086,0.004,-0.0026,-0.0064,-0.0123,-0.0201,-0.0249,-0.0223,-0.0316,-0.0318,-0.0277,-0.0295,-0.0284,-0.0323,-0.0327,-0.0328,-0.0328,0,0.0323,0.0335,0.0369,0.0391,0.04,0.0414,0.0417,0.041,0.033,0.0294,0.0197,0.0112,0.0006,-0.0032,-0.0162,-0.0142,-0.0224,-0.0277,-0.0282,-0.0268,-0.0302,-0.031,-0.033,-0.0335,-0.0335,-0.0334,-0.0334,0,0.0371,0.0386,0.0421,0.0423,0.0446,0.0457,0.047,0.0433,0.0427,0.0329,0.0309,0.0176,0.012,0.0002,-0.0134,-0.0156,-0.0243,-0.0297,-0.0349,-0.0348,-0.0358,-0.0356,-0.0379,-0.0379,-0.0379,-0.0379,-0.0379,0,0.0413,0.0437,0.0449,0.0467,0.0531,0.0521,0.0562,0.0549,0.0515,0.0528,0.0357,0.0349,0.013,0.0032,-0.01,-0.0215,-0.0226,-0.0332,-0.0358,-0.0347,-0.0344,-0.037,-0.0369,-0.0381,-0.038,-0.038,-0.038,0,0.0459,0.0463,0.0504,0.0538,0.0552,0.0596,0.0626,0.0658,0.0622,0.0626,0.0593,0.0461,0.0356,0.0155,-0.002,-0.015,-0.0276,-0.0318,-0.0277,-0.0297,-0.0369,-0.0366,-0.0399,-0.0398,-0.0398,-0.0398,-0.0397,0,0.0483,0.051,0.0556,0.0592,0.0608,0.0657,0.0713,0.0708,0.0741,0.0727,0.0751,0.0621,0.0566,0.0312,0.0056,-0.0174,-0.022,-0.0311,-0.0363,-0.0348,-0.0371,-0.0368,-0.0365,-0.0372,-0.0372,-0.0371,-0.0371,0,0.0533,0.0551,0.059,0.0664,0.0722,0.0786,0.0854,0.0892,0.0919,0.0935,0.0974,0.0919,0.0669,0.0426,0.0096,-0.0063,-0.028,-0.031,-0.0313,-0.0356,-0.0324,-0.0346,-0.0344,-0.0368,-0.0368,-0.0368,-0.0369,-0.0369,0.0575,0.0616,0.0671,0.0745,0.0815,0.0913,0.0976,0.1051,0.1126,0.1165,0.1143,0.1077,0.0802,0.0366,0.0091,-0.0229,-0.0227,-0.0355,-0.0357,-0.0359,-0.0334,-0.0302,-0.0336,-0.0337,-0.0337,-0.0337,-0.0337,0,0.0626,0.0673,0.0745,0.0839,0.0929,0.0954,0.1078,0.1141,0.1248,0.1284,0.1293,0.1033,0.0751,0.0432,-0.0034,-0.0296,-0.0346,-0.0382,-0.0395,-0.0395,-0.0396,-0.0375,-0.0388,-0.0389,-0.0389,-0.039,0,0,0.0655,0.0734,0.0772,0.092,0.0986,0.111,0.1183,0.1273,0.1321,0.1349,0.1303,0.121,0.0841,0.0501,0.0138,-0.0128,-0.0204,-0.0184,-0.0116,-0.0088,-0.0086,-0.0353,-0.0316,0,0,0,0,0]}],[{"header":{"parameterUnit":"m.s-1","parameterCategory":2,"la1":30.2991,"la2":30.254,"lo1":-89.0895,"lo2":-89.0444,"dy":0.0017,"dx":0.0017,"nx":28,"ny":28,"refTime":"2023-10-05T09:00:00:Z","depth":"4","parameterNumber":2,"parameterNumberName":"U-component_of_CURRENTS"},"data":[0,0,0,0,0,0,0,0,0,0,0,0,0,0,0,0,0,0,0,0,0,0,0,0,0,0,0,0,0,0,0,0,0,0,0,0,0,0,0,0,0,0,0,0,0,0,0,0,0,0,0,0,0,0,0,0,0,0,0.1155,0.1156,0,0.1181,0.1181,0.1181,0.1215,0.1217,0.1218,0.1219,0.1289,0.129,0.129,0,0,0,0,0,0,0,0,0,0,0,0,0,0.1124,0.1124,0.1155,0.1156,0.1157,0.1181,0.1181,0.1181,0.1215,0.1217,0.1218,0.1219,0.1289,0.129,0.129,0,0,0,0,0,0,0,0,0,0,0,0,0,0.1136,0.1124,0.1155,0.1182,0.1185,0.1181,0.1181,0.1181,0.1215,0.1217,0.1218,0.122,0.1288,0.1289,0.1291,0.1262,0,0,0.1294,0.1295,0,0,0,0,0,0,0,0,0.1135,0.1136,0.1177,0.118,0.1184,0.1203,0.1196,0.1212,0.1214,0.1196,0.1219,0.1221,0.1267,0.127,0.1261,0.1266,0.1269,0.1294,0.1295,0.1295,0.1296,0,0,0,0,0,0,0,0.1135,0.1136,0.1158,0.1178,0.1182,0.119,0.1193,0.1199,0.1217,0.1198,0.1202,0.1215,0.1269,0.126,0.1263,0.127,0.1294,0.1295,0.1296,0.1296,0.1389,0.1391,0,0,0,0,0,0,0.1143,0.1135,0.1158,0.116,0.1171,0.1189,0.1192,0.1189,0.1216,0.1224,0.1214,0.1217,0.1257,0.1262,0.1266,0.1341,0.1295,0.1296,0.1297,0.1388,0.139,0.1392,0,0,0,0,0,0,0.1142,0.1144,0.1157,0.1154,0.1157,0.1189,0.1185,0.1189,0.1217,0.1229,0.1236,0.1243,0.1258,0.1264,0.1314,0.134,0.1297,0.1298,0.1386,0.1388,0.1391,0.1422,0,0,0,0,0,0,0.114,0.1143,0.1158,0.1154,0.1158,0.1182,0.1184,0.1189,0.1223,0.1228,0.1255,0.1261,0.126,0.1312,0.1315,0.1341,0.1299,0.1383,0.1387,0.139,0.1419,0.1426,0.1431,0,0,0,0,0,0.1139,0.1143,0.1158,0.1162,0.1172,0.1183,0.1186,0.1209,0.1223,0.1239,0.1268,0.1262,0.1336,0.1314,0.1317,0.1344,0.1382,0.1386,0.139,0.1416,0.1424,0.1431,0,0,0,0,0,0,0.1138,0.1147,0.1164,0.1172,0.1194,0.1193,0.1211,0.1226,0.1255,0.1272,0.1279,0.1287,0.1341,0.1342,0.1318,0.1384,0.136,0.1364,0.1379,0.1387,0.1393,0.1413,0.13,0,0,0,0,0,0.1145,0.1153,0.1168,0.1182,0.1192,0.1208,0.1222,0.1239,0.126,0.1275,0.1299,0.1327,0.1351,0.1371,0.1391,0.142,0.1429,0.1443,0.145,0.1455,0.1476,0.1494,0.1503,0.1405,0.1405,0.1405,0,0,0.1153,0.1159,0.1169,0.1184,0.1198,0.1218,0.1219,0.1249,0.1273,0.1277,0.133,0.1352,0.1366,0.1405,0.1429,0.1414,0.1491,0.146,0.1464,0.1483,0.1499,0.1508,0.1516,0.1408,0.1407,0.1407,0,0,0.1168,0.1176,0.1193,0.1208,0.1243,0.1246,0.1264,0.1288,0.131,0.1355,0.1369,0.1412,0.1448,0.1462,0.147,0.1523,0.1524,0.1538,0.1583,0.1599,0.1607,0.1614,0.1647,0.1657,0.1539,0.1539,0.1539,0,0.1188,0.1197,0.1203,0.1223,0.1239,0.1264,0.1286,0.1305,0.135,0.1371,0.1387,0.1462,0.147,0.1513,0.1541,0.1535,0.1558,0.1546,0.1605,0.1612,0.1619,0.1651,0.1662,0.1541,0.154,0.154,0.154,0,0.1206,0.123,0.1238,0.1268,0.1285,0.1307,0.1331,0.1366,0.1399,0.1423,0.1493,0.1517,0.1563,0.1572,0.1575,0.1633,0.164,0.1608,0.158,0.163,0.1662,0.1672,0.1544,0.1543,0.1542,0.1542,0,0,0.121,0.1246,0.1255,0.1274,0.1307,0.1318,0.136,0.1396,0.1429,0.1493,0.1545,0.1596,0.163,0.1646,0.1659,0.1684,0.1746,0.1682,0.1682,0.1707,0.1812,0.1716,0.1717,0.1728,0.173,0.1731,0.1819,0,0.123,0.1261,0.1277,0.1319,0.1331,0.136,0.1391,0.1433,0.147,0.153,0.1579,0.1641,0.165,0.1689,0.1718,0.1741,0.1774,0.1727,0.1769,0.1771,0.167,0.1725,0.1737,0.1826,0.1828,0.183,0.1831,0,0.124,0.1256,0.129,0.133,0.134,0.1378,0.142,0.1457,0.1531,0.1563,0.1639,0.1688,0.177,0.1757,0.1837,0.1815,0.1833,0.1843,0.1845,0.1753,0.1693,0.1765,0.1849,0.1848,0.1846,0.1845,0.1844,0,0.1212,0.1265,0.1287,0.1301,0.135,0.1385,0.1425,0.148,0.1516,0.1608,0.1661,0.1742,0.1815,0.1849,0.19,0.1879,0.1977,0.1927,0.1862,0.1856,0.1901,0.1892,0.1982,0.1982,0.1982,0.1982,0.1982,0,0.1198,0.1224,0.1287,0.1298,0.1338,0.1384,0.144,0.148,0.1561,0.1612,0.17,0.1762,0.1847,0.1917,0.1931,0.1941,0.2,0.1894,0.1873,0.1915,0.1907,0.1908,0.1899,0.1985,0.1984,0.1984,0.1983,0,0.1158,0.1198,0.123,0.1297,0.1326,0.1359,0.1455,0.1486,0.1575,0.1651,0.1699,0.1812,0.1896,0.1967,0.2026,0.1976,0.1985,0.1971,0.205,0.2028,0.1849,0.184,0.1898,0.1896,0.1893,0.1892,0.189,0,0.1134,0.1147,0.1221,0.1242,0.1283,0.1349,0.1386,0.1479,0.1506,0.1664,0.1688,0.1836,0.19,0.1918,0.1981,0.2006,0.1981,0.1972,0.1883,0.1867,0.1842,0.1836,0.1831,0.1886,0.1886,0.1885,0.1885,0,0.1082,0.1122,0.1146,0.1194,0.1242,0.128,0.1349,0.1366,0.1473,0.1584,0.1647,0.1714,0.1812,0.1856,0.1904,0.1908,0.1962,0.1948,0.1951,0.1868,0.1853,0.1829,0.1826,0.1877,0.1878,0.1879,0.1879,0,0.1048,0.1051,0.1094,0.1128,0.1181,0.1192,0.1239,0.1285,0.1337,0.1499,0.1522,0.1673,0.179,0.1809,0.1844,0.1854,0.1816,0.1737,0.1751,0.176,0.1674,0.1632,0.1588,0,0,0,0,0,0.1001,0.0997,0.1023,0.1046,0.1098,0.1132,0.1196,0.1242,0.1359,0.1363,0.1435,0.1517,0.1599,0.167,0.1654,0.1785,0.1821,0.1757,0.1735,0.1834,0.1843,0.1753,0,0,0,0,0,0,0.0966,0.0985,0.0991,0.0976,0.0987,0.1027,0.1068,0.1145,0.1139,0.1273,0.1319,0.1433,0.1526,0.1605,0.1632,0.1654,0.1608,0.1848,0.1844,0.1828,0.1837,0.1844,0.1755,0,0,0,0,0]},{"header":{"parameterUnit":"m.s-1","parameterCategory":2,"la1":30.2991,"la2":30.254,"lo1":-89.0895,"lo2":-89.0444,"dy":0.0017,"dx":0.0017,"nx":28,"ny":28,"refTime":"2023-10-05T09:00:00:Z","depth":"4","parameterNumber":3,"parameterNumberName":"V-component_of_CURRENTS"},"data":[0,0,0,0,0,0,0,0,0,0,0,0,0,0,0,0,0,0,0,0,0,0,0,0,0,0,0,0,0,0,0,0,0,0,0,0,0,0,0,0,0,0,0,0,0,0,0,0,0,0,0,0,0,0,0,0,0,0,0.0342,0.0342,0,0.0322,0.0322,0.0322,0.0302,0.0302,0.0302,0.0302,0.0255,0.0254,0.0253,0,0,0,0,0,0,0,0,0,0,0,0,0,0.033,0.0331,0.0342,0.0342,0.0342,0.0323,0.0322,0.0322,0.0303,0.0302,0.0302,0.0302,0.0255,0.0254,0.0253,0,0,0,0,0,0,0,0,0,0,0,0,0,0.0326,0.0331,0.0342,0.033,0.0329,0.0323,0.0322,0.0322,0.0303,0.0302,0.0302,0.0301,0.0256,0.0254,0.0253,0.0251,0,0,0.0248,0.0247,0,0,0,0,0,0,0,0,0.0326,0.0326,0.0332,0.0331,0.0329,0.0315,0.0301,0.0297,0.0303,0.0312,0.0302,0.0301,0.0273,0.027,0.0267,0.0249,0.0247,0.0248,0.0247,0.0246,0.0246,0,0,0,0,0,0,0,0.0326,0.0327,0.0334,0.0332,0.033,0.0314,0.0313,0.03,0.0294,0.0312,0.031,0.0308,0.0272,0.0269,0.0266,0.0246,0.0248,0.0247,0.0246,0.0245,0.0237,0.0237,0,0,0,0,0,0,0.0331,0.0327,0.0335,0.0334,0.0327,0.0315,0.0314,0.032,0.0295,0.0291,0.0308,0.0307,0.0272,0.0268,0.0264,0.0278,0.0246,0.0245,0.0244,0.0236,0.0237,0.0237,0,0,0,0,0,0,0.0331,0.0333,0.0336,0.0329,0.0329,0.0315,0.0322,0.0319,0.0319,0.0293,0.0289,0.0311,0.0271,0.0266,0.0257,0.0275,0.0244,0.0243,0.0235,0.0236,0.0237,0.0294,0,0,0,0,0,0,0.0331,0.0333,0.0343,0.033,0.0329,0.0334,0.0322,0.0319,0.0318,0.0317,0.0294,0.0289,0.027,0.026,0.0256,0.0273,0.0242,0.0234,0.0236,0.0237,0.0291,0.0297,0.0302,0,0,0,0,0,0.0331,0.0349,0.0344,0.0345,0.0343,0.0335,0.0333,0.0321,0.0319,0.032,0.0307,0.029,0.0265,0.0259,0.0254,0.0271,0.0234,0.0235,0.0237,0.0289,0.0296,0.0302,0,0,0,0,0,0,0.0346,0.0348,0.0342,0.0359,0.0347,0.0331,0.0336,0.0327,0.0319,0.0321,0.0295,0.029,0.029,0.0272,0.0266,0.0272,0.0248,0.0249,0.029,0.0296,0.0301,0.0303,0.0241,0,0,0,0,0,0.0355,0.037,0.0359,0.037,0.0368,0.0353,0.0351,0.0343,0.0332,0.0328,0.031,0.0297,0.0293,0.0287,0.0275,0.0276,0.0244,0.0285,0.029,0.0294,0.0293,0.0263,0.0265,0.0242,0.0242,0.0242,0,0,0.0361,0.0365,0.0372,0.0374,0.0367,0.0368,0.0351,0.0352,0.0358,0.0324,0.0328,0.0313,0.0297,0.0301,0.03,0.0287,0.0283,0.0296,0.0301,0.0296,0.0264,0.0266,0.0268,0.0243,0.0243,0.0243,0,0,0.0375,0.0387,0.0399,0.0396,0.0391,0.0386,0.0388,0.0374,0.0376,0.0373,0.0359,0.0353,0.0337,0.0332,0.0328,0.0353,0.0312,0.0354,0.0381,0.0352,0.0353,0.0354,0.0312,0.0309,0.0356,0.0356,0.0356,0,0.038,0.0398,0.0399,0.0406,0.0412,0.0396,0.0406,0.0405,0.039,0.0401,0.0381,0.037,0.0353,0.0367,0.0375,0.0366,0.0336,0.036,0.0358,0.0359,0.0358,0.0315,0.0311,0.0359,0.0359,0.0359,0.0358,0,0.0395,0.0412,0.0421,0.043,0.0435,0.0443,0.0443,0.0449,0.0448,0.0446,0.0455,0.0425,0.042,0.0417,0.0403,0.0405,0.0379,0.0369,0.0342,0.0364,0.0317,0.0311,0.0363,0.0362,0.0361,0.0361,0,0,0.0402,0.0427,0.0431,0.0448,0.0455,0.0464,0.0484,0.0502,0.0528,0.0504,0.0524,0.051,0.0495,0.0488,0.0468,0.0438,0.041,0.0406,0.0403,0.0363,0.0333,0.029,0.0279,0.0398,0.0398,0.0397,0.0299,0,0.0412,0.0443,0.0453,0.0485,0.0503,0.051,0.0535,0.0553,0.0561,0.0573,0.0552,0.0559,0.0524,0.0523,0.049,0.0434,0.0398,0.0436,0.0318,0.0314,0.0273,0.0273,0.0396,0.0295,0.0293,0.0292,0.0292,0,0.0424,0.0449,0.0486,0.0533,0.0544,0.0562,0.0614,0.0634,0.0654,0.0659,0.0654,0.0632,0.0601,0.056,0.0463,0.0489,0.0416,0.0359,0.0354,0.0289,0.0261,0.0269,0.0281,0.0282,0.0282,0.0283,0.0284,0,0.0441,0.0477,0.0518,0.053,0.0573,0.0603,0.063,0.0665,0.0701,0.0713,0.0725,0.0684,0.0658,0.0569,0.0454,0.0459,0.0327,0.0321,0.021,0.0205,0.0248,0.0248,0.0243,0.0243,0.0243,0.0243,0.0244,0,0.0456,0.0489,0.0533,0.0555,0.0615,0.0637,0.0702,0.0725,0.0761,0.0801,0.0772,0.0766,0.0657,0.0571,0.0465,0.0314,0.0334,0.0206,0.0177,0.0274,0.0278,0.0243,0.0244,0.024,0.0241,0.0241,0.0242,0,0.0469,0.0494,0.0545,0.0601,0.0624,0.0672,0.0747,0.0794,0.0821,0.0862,0.0867,0.082,0.0705,0.058,0.0421,0.0325,0.0189,0.0129,0.0231,0.021,0.0083,0.0089,-0.0001,-0.0003,-0.0005,-0.0007,-0.0008,0,0.0477,0.0505,0.058,0.0617,0.0646,0.0715,0.0768,0.0821,0.0866,0.0888,0.0901,0.0814,0.0758,0.0506,0.0369,0.0155,0.0124,0.005,0.0073,0.0077,0.0058,0.0067,0.0075,-0.0011,-0.0012,-0.0012,-0.0013,0,0.0495,0.0526,0.0571,0.0646,0.0707,0.0777,0.0847,0.088,0.0935,0.0955,0.0918,0.0803,0.0663,0.0484,0.0314,0.0164,0.0099,0.0028,0.0032,0.0053,0.0063,0.0048,0.0059,-0.002,-0.0019,-0.0018,-0.0018,0,0.0512,0.0545,0.0607,0.0672,0.075,0.0817,0.0853,0.0893,0.0935,0.0952,0.0926,0.0797,0.0723,0.0486,0.0331,0.0177,0.0138,0.009,0.009,0.0095,0.0152,0.018,0.0102,0,0,0,0,0,0.0525,0.0561,0.0625,0.0699,0.0777,0.0821,0.0901,0.0931,0.0969,0.0945,0.0941,0.0812,0.058,0.0486,0.0322,0.0286,0.0108,0.0087,0.0052,-0.0058,-0.005,-0.0004,0,0,0,0,0,0,0.0532,0.0593,0.0622,0.0711,0.0761,0.0851,0.0901,0.0927,0.0912,0.0921,0.0803,0.0755,0.0534,0.0671,0.0314,0.0268,0.0219,-0.0013,-0.0017,-0.0062,-0.0055,-0.0049,0.0001,0,0,0,0,0]}]]